Location: City of Moscow
(46.7306°N, 116.9989°W)
Time: 21:51:29
(UTC+00:00)

Cosmos 2315 Rocket - Pass Details

Date: 11 December 2025
Orbit: 965 x 1001 km, 82.9° (Epoch: 12 January)

Event Time Altitude Azimuth Distance (km) Brightness Sun altitude
Rises 14:43:03 0° 349° (N) 3,731 6.7 -6.7°
Reaches altitude 10° 14:45:36 10° 348° (NNW) 2,774 6.0 -6.4°
Maximum altitude 14:51:57 73° 265° (W) 1,038 4.1 -5.4°
Drops below altitude 10° 14:58:11 10° 182° (S) 2,732 6.7 -4.5°
Sets 15:00:41 0° 181° (S) 3,671 7.4 -4.1°
